Douglas Bisbee, AZ

2:59 AM MST on December 11, 2017 (GMT -0700)
Bisbee Douglas International

Weather History for KDUG - March, 2014

Change the Weather History Date:

Saturday, March 1, 2014

  Actual Average Record
Temperature  
Mean Temperature 59 °F 52 °F  
Max Temperature 70 °F 69 °F 83 °F (1999)
Min Temperature 48 °F 35 °F 21 °F (1962)
Degree Days  
Heating Degree Days 6 13  
Month to date heating degree days 6 13  
Since 1 July heating degree days 1970 2049  
Cooling Degree Days 0 0  
Month to date cooling degree days 0 0  
Year to date cooling degree days 0 0  
Growing Degree Days 8 (Base 50)    
Moisture  
Dew Point 36 °F    
Average Humidity 55    
Maximum Humidity 86    
Minimum Humidity 23    
Precipitation  
Precipitation 0.34 in 0.02 in 0.96 in (1952)
Month to date precipitation 0.34 0.02  
Year to date precipitation 0.34 1.41  
Sea Level Pressure  
Sea Level Pressure 29.88 in    
Wind  
Wind Speed 12 mph (SSW)    
Max Wind Speed 35 mph    
Max Gust Speed 42 mph    
Visibility 10 miles    
Events Rain    
T = Trace of Precipitation, MM = Missing Value Source: NWS Daily Summary

Daily Weather History Graph

Daily Weather History Graph

Search for Another Location

Airport or City:

Trip Planner

Search our weather history database for the weather conditions in past years. The results will help you decide how hot, cold, wet, or windy it might be!

Date:

Astronomy

Mar. 01, 2014 Rise Set
Actual Time 6:45 AM MST 6:16 PM MST
Civil Twilight 6:20 AM MST 6:41 PM MST
Nautical Twilight 5:52 AM MST 7:09 PM MST
Astronomical Twilight 5:24 AM MST 7:37 PM MST
Moon 6:44 AM MST (3/1) 7:01 PM MST (3/1)
Length of Visible Light 12h 20m
Length of Day
11h 31m
New Moon, 0% of the Moon is Illuminated
Mar 1
New Moon
Mar 8
First Quarter
Mar 16
Full
Mar 23
Last Quarter
Mar 30
New

Hourly Weather History & Observations

Time (MST) Temp. Dew Point Humidity Pressure Visibility Wind Dir Wind Speed Gust Speed Precip Events Conditions
12:56 AM 57.9 °F 24.1 °F 27% 29.84 in 10.0 mi ESE 8.1 mph - N/A   Clear
1:56 AM 57.9 °F 25.0 °F 28% 29.83 in 10.0 mi South 8.1 mph - N/A   Partly Cloudy
2:56 AM 57.0 °F 25.0 °F 29% 29.83 in 10.0 mi SSE 4.6 mph - N/A   Overcast
3:56 AM 55.0 °F 24.1 °F 30% 29.82 in 10.0 mi South 10.4 mph - N/A   Clear
4:56 AM 55.9 °F 24.1 °F 29% 29.82 in 10.0 mi South 9.2 mph - N/A   Scattered Clouds
5:56 AM 57.0 °F 26.1 °F 30% 29.83 in 10.0 mi South 12.7 mph - N/A   Clear
6:56 AM 55.9 °F 26.1 °F 32% 29.86 in 10.0 mi South 12.7 mph - N/A   Clear
7:56 AM 59.0 °F 27.0 °F 29% 29.88 in 10.0 mi South 12.7 mph - N/A   Clear
8:56 AM 62.1 °F 28.9 °F 29% 29.88 in 10.0 mi South 13.8 mph - N/A   Partly Cloudy
9:56 AM 66.0 °F 32.0 °F 28% 29.87 in 10.0 mi South 15.0 mph - N/A   Mostly Cloudy
10:56 AM 68.0 °F 30.9 °F 25% 29.85 in 10.0 mi SSW 19.6 mph 25.3 mph N/A   Overcast
11:56 AM 68.0 °F 32.0 °F 26% 29.83 in 10.0 mi SSW 24.2 mph 36.8 mph N/A   Mostly Cloudy
12:56 PM 66.9 °F 33.1 °F 28% 29.83 in 10.0 mi WSW 20.7 mph 31.1 mph N/A   Mostly Cloudy
1:56 PM 60.1 °F 39.9 °F 47% 29.87 in 10.0 mi West 20.7 mph 29.9 mph N/A   Overcast
2:56 PM 57.9 °F 42.1 °F 56% 29.87 in 10.0 mi West 12.7 mph - 0.00 in   Overcast
3:56 PM 57.9 °F 44.1 °F 60% 29.87 in 10.0 mi NNW 9.2 mph - N/A   Overcast
4:56 PM 55.9 °F 46.0 °F 69% 29.87 in 10.0 mi SW 10.4 mph - 0.00 in   Overcast
5:56 PM 55.9 °F 44.1 °F 64% 29.88 in 10.0 mi SW 15.0 mph - N/A   Overcast
6:56 PM 52.0 °F 45.0 °F 77% 29.90 in 10.0 mi SW 12.7 mph - 0.01 in Rain Light Rain
7:56 PM 51.1 °F 45.0 °F 80% 29.90 in 10.0 mi SW 13.8 mph - 0.02 in Rain Rain
8:56 PM 51.1 °F 46.0 °F 83% 29.89 in 10.0 mi Calm Calm - 0.02 in Rain Light Rain
9:56 PM 50.0 °F 46.0 °F 86% 29.90 in 7.0 mi Calm Calm - 0.13 in Rain Rain
10:14 PM 50.0 °F 46.0 °F 86% 30.05 in 3.0 mi WSW 18.4 mph 23.0 mph 0.07 in Rain Rain
10:30 PM 48.0 °F 42.1 °F 80% 30.05 in 7.0 mi West 13.8 mph 23.0 mph 0.12 in Rain Rain
10:56 PM 48.0 °F 43.0 °F 83% 29.91 in 10.0 mi NE 6.9 mph - 0.15 in Rain Light Rain
11:52 PM 48.2 °F 42.8 °F 82% 30.01 in 10.0 mi Calm Calm - 0.01 in   Overcast
11:56 PM 48.9 °F 42.1 °F 77% 29.89 in 10.0 mi SE 3.5 mph - 0.01 in   Overcast